Weather History for 28440 - May, 2013

Change the Weather History Date:

Thursday, May 16, 2013

  Actual Average Record
Temperature  
Mean Temperature 53 °F -  
Max Temperature 64 °F - - ()
Min Temperature 42 °F - - ()
Degree Days  
Heating Degree Days 12    
Growing Degree Days 3 (Base 50)    
Moisture  
Dew Point 45 °F    
Average Humidity 77    
Maximum Humidity 93    
Minimum Humidity 50    
Precipitation  
Precipitation 0.00 in 0.08 in - ()
Sea Level Pressure  
Sea Level Pressure 30.10 in    
Wind  
Wind Speed 5 mph ()    
Max Wind Speed 11 mph    
Max Gust Speed 13 mph    
Visibility 6.0 miles    
Events Rain    
T = Trace of Precipitation, MM = Missing Value Source: Averaged Metar Reports

Daily Weather History Graph

Daily Weather History Graph

Search for Another Location

Airport or City:

Trip Planner

Search our weather history database for the weather conditions in past years. The results will help you decide how hot, cold, wet, or windy it might be!

Date:

Astronomy

May. 16, 2013 Rise Set
Actual Time 5:38 AM YEKT 10:10 PM YEKT
Civil Twilight 4:45 AM YEKT 11:03 PM YEKT
Nautical Twilight 3:19 AM YEKT 12:32 AM YEKT
Astronomical Twilight Sun does not set Sun does not set
Moon 11:06 AM YEKT (5/16) 2:01 AM YEKT (5/16)
Length of Visible Light 18h 17m
Length of Day
16h 32m
Waxing Crescent, 32% of the Moon is Illuminated
May 16
Waxing Crescent
May 18
First Quarter
May 25
Full
Jun 1
Last Quarter
Jun 8
New

Hourly Weather History & Observations

Time (YEKT) Temp. Windchill Dew Point Humidity Pressure Visibility Wind Dir Wind Speed Gust Speed Precip Events Conditions
12:00 AM 45 °F - 42 °F 85% 30.15 in 2 mi ESE 4.5 mph - -   Mist
12:00 AM 42.8 °F 40.2 °F 41.0 °F 93% 30.12 in 6.2 mi ENE 4.5 mph - N/A   Overcast
12:30 AM 42.8 °F 40.2 °F 41.0 °F 93% 30.12 in 6.2 mi ENE 4.5 mph - N/A   Overcast
1:00 AM 44.6 °F 42.3 °F 42.8 °F 93% 30.12 in 6.2 mi ENE 4.5 mph - N/A   Overcast
1:30 AM 44.6 °F 42.3 °F 42.8 °F 93% 30.12 in 6.2 mi East 4.5 mph - N/A   Overcast
2:00 AM 44.6 °F 42.3 °F 42.8 °F 93% 30.12 in 6.2 mi ENE 4.5 mph - N/A   Overcast
2:30 AM 44.6 °F 42.3 °F 41.0 °F 87% 30.12 in 6.2 mi ENE 4.5 mph - N/A   Overcast
3:00 AM 44 °F - 41 °F 83% 30.16 in 2 mi ESE 4.5 mph - -   Mist
3:30 AM 44.6 °F 42.3 °F 42.8 °F 93% 30.12 in 6.2 mi ENE 4.5 mph - N/A   Overcast
4:00 AM 44.6 °F 42.3 °F 41.0 °F 87% 30.12 in 6.2 mi East 4.5 mph - N/A   Overcast
4:30 AM 44.6 °F 42.3 °F 41.0 °F 87% 30.12 in 6.2 mi East 4.5 mph - N/A   Overcast
5:00 AM 44.6 °F 42.3 °F 41.0 °F 87% 30.12 in 6.2 mi East 4.5 mph - N/A   Overcast
5:30 AM 44.6 °F 42.3 °F 41.0 °F 87% 30.12 in 6.2 mi ESE 4.5 mph - N/A   Overcast
6:00 AM 44 °F - 40 °F 83% 30.16 in 2 mi ESE 4.5 mph - -   Mist
6:00 AM 44.6 °F 42.3 °F 41.0 °F 87% 30.12 in 6.2 mi South 4.5 mph - N/A   Overcast
6:30 AM 44.6 °F 42.3 °F 41.0 °F 87% 30.12 in 6.2 mi East 4.5 mph - N/A   Overcast
7:00 AM 44.6 °F 40.8 °F 41.0 °F 87% 30.12 in 6.2 mi East 6.7 mph - N/A   Overcast
7:30 AM 46.4 °F 43.0 °F 41.0 °F 81% 30.12 in 6.2 mi East 6.7 mph - N/A   Overcast
8:00 AM 46.4 °F 43.0 °F 41.0 °F 81% 30.12 in 6.2 mi ESE 6.7 mph - N/A   Overcast
8:30 AM 46.4 °F 43.0 °F 42.8 °F 87% 30.12 in 6.2 mi ESE 6.7 mph - N/A   Overcast
9:00 AM 47 °F - 41 °F 73% 30.16 in 31 mi SE 6.7 mph - -   Overcast
9:00 AM 48.2 °F - 42.8 °F 82% 30.12 in 6.2 mi ESE 8.9 mph - N/A   Overcast
9:30 AM 48.2 °F - 42.8 °F 82% 30.12 in 6.2 mi SE 8.9 mph - N/A   Overcast
10:00 AM 48.2 °F - 42.8 °F 82% 30.12 in 6.2 mi SE 11.2 mph - N/A   Overcast
10:30 AM 50.0 °F - 44.6 °F 82% 30.12 in 6.2 mi SE 11.2 mph - N/A   Overcast
11:00 AM 50.0 °F - 44.6 °F 82% 30.12 in 6.2 mi SE 8.9 mph - N/A   Overcast
11:30 AM 51.8 °F - 44.6 °F 76% 30.12 in 6.2 mi SE 8.9 mph - N/A   Overcast
12:00 PM 51 °F - 44 °F 69% 30.14 in 31 mi SSE 6.7 mph - -   Overcast
12:00 PM 51.8 °F - 44.6 °F 76% 30.12 in 6.2 mi SE 8.9 mph - N/A   Overcast
12:30 PM 53.6 °F - 46.4 °F 77% 30.12 in 6.2 mi South 8.9 mph - N/A   Overcast
1:00 PM 53.6 °F - 46.4 °F 77% 30.12 in 6.2 mi South 8.9 mph - N/A Rain Light Rain Showers
1:30 PM 53.6 °F - 46.4 °F 77% 30.12 in 6.2 mi SSE 8.9 mph - N/A Rain Light Rain Showers
2:00 PM 55.4 °F - 48.2 °F 77% 30.12 in 6.2 mi SE 6.7 mph - N/A   Overcast
2:30 PM 55.4 °F - 48.2 °F 77% 30.12 in 6.2 mi SE 6.7 mph - N/A   Overcast
3:00 PM 57 °F - 47 °F 60% 30.12 in 12 mi South 6.7 mph - - Rain Light Rain Showers
3:00 PM 57.2 °F - 48.2 °F 72% 30.12 in 6.2 mi SSE 6.7 mph - N/A   Overcast
3:30 PM 59.0 °F - 50.0 °F 72% 30.09 in - SE 6.7 mph - N/A   Clear
4:00 PM 60.8 °F - 50.0 °F 68% 30.09 in - South 4.5 mph - N/A   Clear
4:30 PM 60.8 °F - 50.0 °F 68% 30.09 in - Variable 2.2 mph - N/A   Clear
5:00 PM 60.8 °F - 50.0 °F 68% 30.09 in - ESE 6.7 mph - N/A   Clear
5:30 PM 64.4 °F - 51.8 °F 64% 30.06 in - SSE 6.7 mph - N/A   Clear
6:00 PM 63 °F - 49 °F 50% 30.06 in 31 mi SSE 4.5 mph - -   Partly Cloudy
6:00 PM 64.4 °F - 50.0 °F 59% 30.06 in - SSE 6.7 mph - N/A   Clear
6:30 PM 64.4 °F - 51.8 °F 64% 30.06 in - SSE 6.7 mph 13.4 mph N/A   Clear
7:00 PM 64.4 °F - 50.0 °F 59% 30.06 in - South 4.5 mph - N/A   Clear
7:30 PM 62.6 °F - 51.8 °F 68% 30.04 in - SSW 6.7 mph - N/A   Clear
8:00 PM 62.6 °F - 50.0 °F 63% 30.04 in - SSE 6.7 mph - N/A   Clear
8:30 PM 62.6 °F - 51.8 °F 68% 30.04 in - SE 6.7 mph - N/A   Clear
9:00 PM 62 °F - 50 °F 54% 30.03 in 31 mi SE 4.5 mph - -  
9:00 PM 62.6 °F - 51.8 °F 68% 30.04 in - SE 4.5 mph - N/A   Clear
9:30 PM 60.8 °F - 50.0 °F 68% 30.04 in - ESE 4.5 mph - N/A   Clear
10:00 PM 59.0 °F - 50.0 °F 72% 30.04 in - SE 4.5 mph - N/A   Clear
10:30 PM 55.4 °F - 46.4 °F 72% 30.04 in - SE 4.5 mph - N/A   Clear
11:00 PM 53.6 °F - 46.4 °F 77% 30.04 in 4.3 mi ESE 4.5 mph - N/A   Mostly Cloudy
11:30 PM 51.8 °F - 46.4 °F 82% 30.01 in - SE 4.5 mph - N/A   Clear